Wetbulb
55.17 54.93 54.74 54.51 54.76 54.54 54.20 53.74 53.49 53.83 54.47 55.02 55.53 55.82 56.02 56.40 56.66 56.43 50.40 55.07 58.58 64.18 62.94 63.22 61.91 61.94 63.05 60.88 61.89 61.34 53.79 50.98 52.31 52.63 54.30 58.10 57.18 59.59 60.99 59.59 60.15 61.47 61.48 62.85 64.02
54.16 54.32 53.90 54.41 54.66 54.79 54.82 54.61 54.15 53.85 53.78 53.85 54.50 55.20 55.38 55.94 55.26 52.92 59.77 60.64 63.39 64.42 54.55 58.71 56.89 58.87 59.33 59.75 60.14 57.87 53.68 53.08 56.41 56.76 55.83 57.43 57.66 58.07 57.93 58.29 58.62 59.68 62.55 63.33 64.39
54.09 54.06 53.43 53.70 53.71 53.80 53.95 54.23 54.02 53.91 54.35 53.79 53.65 54.42 54.82 55.52 51.19 50.23 59.77 62.15 62.90 62.87 54.15 58.08 56.98 58.12 56.47 58.56 58.88 58.25 54.13 57.21 57.76 58.30 58.48 57.55 57.66 59.15 57.47 56.47 58.67 58.31 60.57 62.52 63.25
53.39 53.08 53.65 53.23 53.07 53.08 52.88 53.15 53.42 53.77 53.62 53.92 53.93 53.61 54.66 54.24 43.59 57.78 58.89 60.16 62.67 65.07 55.13 55.45 55.13 53.36 53.22 53.45 58.35 55.40 57.87 58.25 58.48 59.23 58.42 57.28 59.13 57.72 58.46 58.75 60.96 61.08 61.61 61.79 62.09
52.24 52.70 52.88 53.35 53.01 52.85 53.08 52.98 52.87 52.95 53.29 53.13 53.47 53.27 52.69 48.39 48.48 55.08 58.51 61.04 55.86 60.40 54.68 54.02 53.06 54.06 53.17 54.46 55.36 55.57 57.13 58.40 59.15 59.18 58.91 59.15 57.74 57.70 58.16 60.15 61.29 61.04 60.61 60.43 61.18
51.27 51.45 52.30 53.00 53.11 52.91 53.27 53.37 53.31 53.28 53.10 53.19 53.63 53.30 49.87 41.82 53.22 55.81 55.95 55.60 54.59 54.96 57.24 55.41 53.18 55.82 56.17 55.42 54.49 55.96 56.08 56.68 58.35 58.63 59.02 56.97 57.04 57.83 58.40 60.16 59.07 58.65 58.54 59.29 59.47
51.83 52.25 52.72 52.87 52.87 52.87 52.97 53.22 53.25 53.44 53.35 53.92 53.65 52.55 48.22 45.88 53.48 54.70 54.36 53.89 54.91 52.60 52.68 55.97 55.59 54.12 56.43 53.84 56.59 55.52 52.91 54.83 55.99 56.89 56.39 57.88 54.32 54.55 57.47 57.71 57.00 56.97 58.33 58.50 58.57
52.53 52.94 52.55 52.68 52.83 52.73 52.97 52.70 52.77 52.93 53.57 54.06 54.01 51.09 44.24 52.44 54.48 52.59 54.05 53.17 54.74 54.95 53.12 53.13 54.78 53.46 52.93 54.79 52.59 51.42 52.70 49.03 54.07 55.14 55.45 54.54 49.49 55.24 57.20 56.72 56.02 56.83 57.25 57.35 58.44
51.76 52.27 52.44 52.52 52.53 52.51 52.63 52.56 52.75 52.95 53.41 53.86 52.13 49.30 43.74 52.79 48.66 51.90 53.41 50.39 52.80 54.23 54.33 52.80 51.60 50.73 52.29 48.69 48.30 50.15 46.44 48.27 50.22 54.24 53.26 51.99 50.23 55.00 56.73 56.10 55.73 56.82 57.87 57.14 58.08
52.65 52.33 52.29 52.17 52.48 52.62 52.57 52.52 52.33 51.79 52.77 53.75 51.88 44.36 47.27 43.36 49.80 52.37 53.68 53.62 50.64 51.29 50.60 49.17 48.47 47.26 48.46 47.99 43.27 46.21 46.62 48.66 49.53 53.06 51.16 50.65 50.82 53.93 55.17 55.26 55.97 57.03 57.51 57.42 58.12
52.46 52.69 52.56 52.54 52.42 52.34 51.36 51.28 48.39 47.10 48.22 44.85 44.50 44.77 45.60 48.72 50.47 49.01 52.01 51.46 51.06 49.08 44.99 47.64 43.77 43.08 46.39 48.56 49.79 49.83 49.47 48.96 51.05 53.31 51.49 51.10 51.46 53.26 55.29 55.91 56.25 57.10 57.32 57.58 59.72
52.11 52.42 52.46 52.58 52.29 52.17 51.31 45.96 45.16 46.43 39.94 46.07 46.01 45.66 47.13 48.18 43.21 46.90 50.44 46.08 46.96 43.10 46.56 45.44 41.87 46.89 48.60 49.10 48.15 48.28 47.78 48.50 51.38 53.15 52.60 50.50 50.29 54.12 55.63 56.06 56.81 56.47 56.97 58.29 60.30
52.19 51.77 51.86 52.36 51.94 51.06 48.82 47.09 51.21 50.53 40.25 42.50 45.24 44.65 45.89 47.60 43.30 44.21 47.62 46.08 44.99 43.75 44.36 43.50 44.91 47.20 46.95 47.22 46.36 46.70 46.47 47.52 47.81 50.99 52.07 49.75 47.96 51.09 54.83 56.37 56.77 56.97 57.40 57.60 59.95
52.24 52.05 51.74 51.31 48.59 50.11 47.22 50.48 51.63 51.10 35.27 37.71 41.88 45.42 47.57 47.55 43.19 49.90 50.63 45.99 44.78 42.66 44.38 44.36 47.95 46.36 45.25 44.61 46.95 43.96 48.47 47.33 46.48 45.75 42.66 49.62 43.28 50.07 53.14 53.90 55.27 56.19 56.69 58.12 60.82
52.10 51.61 51.36 50.13 48.56 46.19 48.39 52.00 51.88 48.74 23.97 39.18 43.26 50.90 47.62 44.64 45.33 46.63 51.40 47.17 41.06 43.53 44.84 42.71 44.30 45.14 44.80 44.94 47.03 45.33 47.78 47.36 46.95 45.55 45.58 45.92 43.90 48.18 52.74 51.24 53.83 55.63 56.58 58.75 61.00
51.79 51.30 50.64 50.72 48.61 49.66 51.69 51.39 49.06 33.16 23.94 35.52 42.11 40.91 41.17 43.05 43.31 45.74 46.53 49.19 46.76 42.34 45.57 44.87 48.13 46.93 46.86 47.62 47.52 48.39 46.38 47.42 47.63 46.04 40.20 44.95 44.71 45.70 49.91 52.14 54.45 55.89 55.96 59.42 61.36
51.00 50.08 50.13 51.70 45.51 50.97 51.24 46.66 32.83 26.56 37.06 34.00 36.34 40.03 39.61 38.81 39.52 41.84 40.80 41.82 39.38 35.23 37.41 43.30 43.97 46.60 47.62 45.53 47.43 46.78 44.96 39.98 38.58 39.43 38.77 47.46 45.49 46.68 52.62 53.74 53.95 54.31 56.69 60.49 61.53
49.95 48.09 48.46 51.39 51.11 50.72 47.68 38.80 25.37 31.57 32.60 38.89 38.00 38.23 35.47 38.51 37.99 37.49 37.69 37.15 43.72 41.13 39.26 37.73 37.21 43.90 46.57 45.46 44.36 44.91 45.67 40.88 35.22 38.12 41.60 47.46 43.01 47.52 53.24 55.13 55.85 55.99 56.65 60.65 61.47
47.80 52.20 50.87 51.60 52.24 50.67 42.94 29.89 30.31 33.04 36.02 34.96 36.32 33.77 34.22 36.67 36.75 36.52 35.27 32.78 38.10 42.91 38.04 38.44 39.82 46.77 46.71 47.41 47.62 44.73 43.44 48.66 45.37 46.74 42.14 46.22 48.46 50.01 52.53 53.28 54.00 55.80 56.15 59.36 61.15
48.43 49.14 47.46 52.11 52.32 49.19 39.29 30.28 33.97 38.11 38.42 37.71 31.19 34.38 31.60 34.26 34.19 34.79 33.99 36.96 35.61 41.85 45.08 41.61 37.23 46.33 45.87 47.42 48.03 47.79 49.02 43.13 44.60 38.04 36.97 42.70 43.98 43.90 49.89 51.96 53.58 55.39 57.30 60.01 61.47
48.23 44.42 48.40 52.11 48.77 40.53 32.91 33.85 36.56 40.15 40.08 35.68 34.21 33.07 33.90 33.00 35.09 34.45 33.61 36.63 37.11 38.50 42.74 43.25 40.96 43.54 46.02 43.70 43.50 44.77 44.96 46.32 46.82 44.84 39.93 39.06 42.04 50.27 52.15 53.09 54.71 57.38 58.99 60.83 61.05
46.05 40.24 48.62 52.28 40.48 39.85 34.07 34.86 38.50 38.64 40.27 38.05 38.57 36.40 34.72 35.50 34.67 34.12 33.23 36.15 40.12 40.04 36.73 42.06 41.88 39.26 42.82 47.29 48.64 47.45 45.93 46.59 41.96 40.90 44.15 43.82 42.51 52.36 54.81 56.00 57.32 57.72 59.61 61.15 61.72
42.55 43.08 49.86 48.81 35.06 34.57 35.11 36.22 38.05 37.28 37.11 36.94 36.28 38.04 39.14 35.81 32.13 34.88 36.08 40.09 40.82 38.90 36.92 38.78 40.09 36.34 40.15 44.77 46.65 45.19 46.65 47.74 48.06 48.21 43.18 40.52 42.34 51.14 55.19 55.68 57.66 58.96 59.83 60.48 61.20
43.27 38.33 44.79 45.38 41.82 33.36 31.51 34.55 34.61 39.59 38.08 38.70 38.05 39.59 37.79 36.08 38.41 34.57 35.56 38.74 40.70 40.66 40.49 41.06 37.21 39.29 38.76 41.46 44.75 42.82 44.66 46.77 46.56 42.89 43.88 43.37 43.47 48.94 53.36 55.19 57.06 58.98 59.80 60.38 61.00
43.81 39.49 39.74 35.86 36.57 34.22 35.29 34.09 34.42 33.78 38.71 40.12 37.08 37.17 34.75 32.51 35.09 34.98 37.05 38.44 39.62 41.18 40.92 41.08 35.77 40.83 42.34 42.93 42.72 44.37 44.10 44.84 44.48 45.54 43.09 44.73 44.57 47.13 53.03 54.53 56.52 58.02 59.78 59.89 60.71
40.76 37.80 40.66 36.63 36.37 35.69 35.23 35.50 34.50 35.36 34.39 35.17 35.27 36.28 35.94 32.56 34.70 34.29 36.84 38.40 35.83 36.48 39.41 41.68 36.46 39.26 39.20 42.54 42.90 41.58 44.26 45.39 45.26 45.82 45.86 45.90 45.52 50.07 52.65 53.77 53.06 57.32 59.12 59.40 60.52
44.91 45.45 39.54 36.40 35.34 33.29 35.19 34.61 33.74 34.99 37.60 38.60 37.82 36.34 36.11 36.92 39.57 40.93 41.15 42.00 39.97 37.47 36.78 38.12 37.72 37.29 36.19 41.93 42.17 39.10 43.71 44.95 45.67 46.98 46.66 43.61 48.07 51.33 51.40 52.59 53.54 56.34 58.54 59.46 61.04
MSLP
1021.40 1021.21 1021.04 1020.68 1020.21 1020.00 1019.88 1019.64 1019.36 1019.00 1018.61 1018.34 1017.84 1017.80 1017.28 1016.50 1015.68 1014.10 1012.69 1011.82 1011.97 1012.16 1011.96 1011.75 1011.84 1011.25 1010.48 1009.42 1009.01 1008.41 1007.37 1005.72 1004.81 1004.22 1004.07 1004.28 1004.10 1004.72 1004.92 1004.59 1004.42 1004.25 1004.26 1004.16 1004.69
1021.53 1021.30 1020.96 1020.72 1020.30 1019.99 1019.87 1019.64 1019.32 1019.08 1018.77 1018.17 1017.98 1017.54 1017.07 1016.38 1014.95 1012.56 1011.15 1011.41 1011.76 1011.96 1011.20 1010.55 1010.22 1010.47 1009.69 1008.70 1008.32 1007.75 1006.26 1004.93 1004.54 1004.24 1004.20 1004.02 1004.72 1004.29 1004.91 1004.45 1004.15 1003.66 1003.77 1004.51 1004.60
1021.67 1021.13 1020.93 1020.78 1020.38 1020.09 1019.76 1019.37 1019.03 1018.92 1018.61 1018.29 1018.16 1017.90 1017.57 1016.57 1013.92 1010.34 1011.03 1011.18 1011.25 1011.48 1010.86 1009.83 1009.20 1009.27 1008.67 1007.84 1007.31 1006.63 1005.08 1004.41 1004.26 1004.12 1004.49 1004.63 1004.36 1004.15 1004.09 1003.99 1003.66 1003.22 1003.58 1003.99 1004.04
1021.95 1021.54 1021.01 1020.62 1020.45 1020.17 1019.84 1019.59 1019.30 1018.83 1018.49 1018.33 1018.29 1017.95 1017.02 1015.92 1012.21 1010.08 1011.11 1011.17 1010.69 1010.30 1010.20 1009.22 1008.86 1008.09 1007.60 1006.67 1006.62 1005.72 1004.75 1004.61 1003.93 1003.69 1004.08 1004.29 1004.25 1003.82 1003.98 1003.86 1003.66 1003.33 1003.58 1003.60 1003.23
1022.09 1021.68 1021.30 1020.77 1020.23 1019.84 1019.52 1019.10 1018.87 1018.58 1018.27 1018.04 1017.99 1017.66 1016.52 1014.61 1010.98 1010.12 1011.13 1010.93 1010.12 1009.89 1008.97 1008.24 1007.97 1007.29 1005.97 1006.05 1005.89 1004.69 1004.63 1004.17 1004.17 1003.92 1003.99 1004.18 1003.85 1003.45 1003.45 1003.64 1003.49 1003.20 1003.09 1002.93 1002.71
1022.01 1021.59 1021.16 1020.70 1020.23 1019.65 1019.00 1018.54 1018.30 1018.06 1018.16 1018.01 1017.62 1017.41 1016.37 1013.40 1010.76 1010.74 1010.93 1010.49 1009.96 1009.20 1008.66 1008.06 1007.15 1006.58 1005.72 1005.15 1004.65 1004.49 1004.24 1004.05 1003.83 1003.70 1003.90 1003.86 1003.16 1003.15 1002.91 1003.04 1002.76 1002.57 1002.43 1002.23 1001.99
1021.65 1021.29 1020.88 1020.43 1019.95 1019.43 1018.98 1018.51 1018.01 1017.46 1017.12 1016.92 1016.83 1016.75 1015.29 1012.24 1011.13 1010.86 1010.73 1010.33 1010.22 1009.40 1008.46 1007.97 1007.30 1006.76 1006.02 1005.58 1005.04 1004.53 1004.17 1003.46 1003.59 1003.67 1003.39 1003.55 1002.30 1001.98 1002.52 1002.34 1001.84 1001.90 1001.85 1001.60 1001.22
1021.43 1021.03 1020.61 1020.16 1019.65 1019.11 1018.59 1018.09 1017.46 1016.75 1015.97 1015.83 1016.02 1015.99 1013.40 1011.34 1011.16 1010.75 1010.36 1009.78 1009.99 1009.94 1009.61 1008.54 1007.97 1007.45 1006.72 1006.06 1005.12 1004.21 1003.96 1002.53 1002.53 1002.92 1002.94 1003.55 1000.19 1001.38 1001.50 1001.21 1001.24 1001.51 1001.17 1000.83 1000.52
1021.19 1020.74 1020.33 1019.83 1019.29 1018.70 1018.06 1017.30 1016.49 1015.90 1015.52 1015.49 1015.47 1015.08 1011.19 1010.73 1010.61 1009.74 1009.84 1009.45 1008.72 1008.81 1009.15 1008.76 1008.01 1006.93 1006.54 1006.04 1004.78 1003.41 1001.80 1001.25 1001.68 1002.02 1002.43 1002.62 999.98 1000.71 1000.64 1000.71 1000.93 1000.80 1000.48 1000.16 999.82
1020.88 1020.46 1020.02 1019.48 1018.86 1018.19 1017.22 1016.14 1015.44 1015.57 1014.88 1014.57 1014.13 1014.13 1010.93 1009.34 1009.17 1009.18 1008.69 1009.26 1008.84 1008.09 1008.70 1008.21 1007.11 1005.92 1005.36 1004.15 1000.48 1001.57 1001.58 1001.40 1000.76 1001.11 1002.23 1001.51 999.93 1000.28 1000.46 1000.45 1000.08 999.91 999.83 999.57 999.09
1020.60 1020.08 1019.60 1019.10 1018.56 1017.98 1016.80 1014.80 1014.45 1013.81 1013.63 1012.53 1011.41 1010.86 1009.22 1008.73 1008.80 1008.59 1008.43 1008.61 1008.45 1007.72 1006.12 1006.22 1005.69 1002.91 1000.61 1001.88 1002.50 1001.99 1001.05 1000.28 1000.71 1000.93 1001.20 1000.32 999.50 999.51 999.65 999.79 999.40 999.16 998.99 998.65 998.29
1020.51 1019.85 1019.26 1018.78 1018.29 1017.77 1016.63 1015.36 1015.89 1016.20 1013.86 1011.74 1010.54 1009.92 1009.34 1009.27 1008.79 1008.06 1007.89 1007.82 1007.29 1005.58 1005.70 1004.64 1002.43 998.43 1001.52 1002.33 1002.24 1001.84 1001.03 1000.07 1000.27 1000.54 1000.47 1000.16 999.61 999.08 999.02 998.84 998.77 998.48 998.20 998.04 997.67
1020.41 1019.79 1019.14 1018.60 1017.99 1017.44 1016.47 1016.11 1016.11 1015.98 1013.88 1010.09 1008.89 1008.53 1008.18 1008.26 1007.78 1007.19 1007.22 1006.55 1005.87 1005.11 1003.51 1001.47 997.74 1001.61 1000.84 1001.16 1001.11 1000.50 1000.49 1000.82 1000.34 1000.46 1000.16 1000.34 999.64 998.80 998.46 997.91 997.64 997.76 997.58 997.12 997.20
1020.10 1019.54 1019.03 1018.57 1017.94 1016.74 1015.85 1016.09 1016.05 1015.93 1013.21 1008.51 1007.97 1007.49 1007.50 1007.55 1006.93 1006.45 1006.15 1005.87 1004.98 1003.98 1003.21 1001.42 999.72 999.89 1000.05 999.43 999.74 999.21 1000.76 1001.23 1001.13 1001.05 999.65 1000.55 997.65 997.35 997.30 996.89 996.74 996.61 996.51 996.22 996.59
1019.84 1019.23 1018.82 1018.59 1017.60 1016.64 1016.02 1016.07 1015.83 1015.56 1011.54 1007.91 1007.29 1006.84 1006.54 1006.64 1005.90 1004.86 1005.36 1005.50 1004.08 1003.30 1002.61 999.43 999.34 998.77 997.91 996.70 999.49 998.16 1000.35 1000.59 1000.96 1000.78 1000.45 999.46 998.52 996.34 996.88 996.03 995.35 995.59 995.61 995.56 996.65
1019.41 1018.77 1018.37 1016.96 1017.32 1016.48 1016.00 1015.99 1015.53 1014.17 1009.52 1007.46 1006.72 1006.50 1005.94 1005.64 1005.57 1005.34 1004.56 1005.14 1004.51 1003.61 1001.72 1000.17 998.99 998.28 996.23 998.03 998.65 999.81 1000.17 1000.33 1000.53 1000.54 999.09 998.49 998.15 996.21 995.66 994.71 994.21 994.13 994.52 994.95 996.68
1018.93 1018.37 1017.75 1017.14 1016.55 1016.62 1016.22 1015.18 1014.20 1011.52 1008.88 1008.05 1007.71 1007.14 1006.32 1005.43 1005.91 1005.81 1005.39 1004.24 1003.88 1003.04 1001.21 999.94 998.70 997.96 997.19 997.22 998.17 998.97 999.34 998.99 999.40 998.67 996.95 997.52 996.75 995.53 994.75 993.60 993.69 993.71 994.00 995.22 996.55
1018.49 1018.12 1017.65 1016.84 1016.80 1016.91 1016.18 1015.08 1012.68 1010.24 1009.63 1009.25 1008.84 1007.80 1006.50 1005.84 1005.85 1006.52 1005.87 1005.43 1002.96 1002.32 1000.80 999.83 998.08 997.14 996.60 995.76 995.56 996.62 997.03 996.18 996.28 996.28 995.95 996.42 994.76 993.86 994.09 993.68 993.38 993.53 993.80 994.88 996.39
1018.25 1017.00 1016.29 1016.68 1016.65 1016.69 1015.79 1013.89 1011.56 1011.30 1011.04 1010.32 1009.36 1007.54 1006.26 1005.98 1006.28 1006.13 1006.67 1006.98 1006.30 1003.31 1001.39 999.04 997.08 995.83 996.12 995.58 995.10 995.49 995.36 995.49 995.18 995.20 994.93 993.92 994.32 994.20 993.77 992.76 992.49 992.59 993.34 994.70 996.16
1017.67 1016.76 1016.50 1017.02 1016.96 1016.53 1015.56 1013.80 1012.37 1011.97 1011.44 1010.73 1009.53 1008.25 1007.07 1006.21 1006.51 1006.01 1006.52 1008.21 1007.74 1006.08 1003.93 1000.85 998.42 995.46 995.80 995.26 994.62 994.10 995.53 995.53 995.11 994.55 994.22 993.66 993.30 993.12 991.73 991.48 991.68 992.00 992.83 994.26 995.99
1017.68 1016.11 1016.76 1017.28 1017.72 1017.32 1015.71 1013.92 1013.13 1012.35 1011.88 1011.24 1009.96 1009.00 1008.07 1007.66 1006.89 1006.43 1006.72 1008.01 1008.89 1007.44 1005.59 1003.07 1000.57 996.14 995.19 993.89 992.84 993.70 993.70 994.26 994.60 994.34 993.75 993.39 992.84 992.72 991.66 991.27 991.16 991.47 992.51 994.21 995.74
1017.45 1015.97 1016.61 1016.95 1016.85 1016.88 1015.70 1014.88 1014.11 1012.61 1012.42 1011.87 1010.67 1009.67 1008.75 1007.87 1007.16 1006.69 1006.74 1007.66 1008.72 1007.82 1006.41 1004.78 1001.87 997.93 994.34 993.86 993.38 993.31 993.06 993.77 993.46 994.15 993.60 992.82 992.49 992.47 991.77 991.67 991.22 991.23 992.38 994.18 995.38
1017.17 1016.48 1016.49 1016.42 1016.24 1016.35 1016.05 1014.78 1013.71 1012.86 1012.09 1011.99 1010.85 1009.81 1009.02 1008.29 1007.57 1006.78 1006.85 1008.07 1008.11 1007.78 1007.66 1006.41 1002.46 998.69 995.33 994.22 993.73 992.76 992.87 993.34 993.48 993.20 993.22 993.03 992.67 992.18 991.91 991.65 991.81 992.04 993.09 994.26 995.18
1017.93 1016.74 1016.12 1016.40 1016.91 1017.03 1016.15 1014.36 1013.34 1012.60 1012.12 1011.85 1011.40 1010.32 1009.49 1008.23 1007.45 1006.98 1006.72 1006.86 1007.89 1007.82 1007.98 1006.74 1004.04 999.60 995.38 994.16 993.94 993.32 993.08 993.16 993.48 993.00 992.65 992.83 992.57 991.99 991.62 991.38 992.04 992.69 993.68 994.47 995.18
1018.43 1017.59 1017.88 1016.96 1016.77 1016.86 1016.05 1015.11 1013.46 1012.72 1012.48 1011.56 1010.76 1010.46 1010.33 1009.20 1007.82 1006.71 1006.53 1006.77 1007.11 1007.66 1007.21 1006.14 1003.30 1000.49 998.40 997.12 996.29 994.23 993.17 993.11 993.01 993.35 992.83 992.36 992.67 991.97 991.26 991.63 992.62 993.08 993.92 994.60 995.04
1018.95 1018.79 1018.00 1017.57 1017.09 1016.44 1015.54 1014.41 1013.88 1013.69 1013.55 1011.95 1011.24 1010.90 1010.64 1009.85 1008.95 1007.82 1007.15 1006.81 1007.52 1007.94 1006.93 1005.49 1003.58 1001.36 998.73 997.91 996.88 995.24 994.00 993.10 993.19 993.38 993.42 992.99 992.59 992.88 992.53 991.93 992.42 993.09 993.65 994.11 994.63
1019.51 1019.44 1019.18 1017.67 1016.92 1016.61 1015.41 1015.04 1014.84 1014.49 1013.15 1012.09 1012.01 1011.58 1010.72 1009.66 1009.41 1008.67 1007.93 1007.33 1007.40 1007.56 1007.19 1005.48 1003.57 1001.51 998.18 997.57 996.59 995.43 994.24 993.73 993.41 993.48 993.52 993.17 992.60 993.07 992.61 992.49 992.53 992.55 993.16 993.67 994.08
Wind_Speed
15 13 14 14 14 13 14 15 15 15 14 14 15 15 17 19 21 13 13 8 4 13 5 8 12 12 15 14 11 12 11 13 20 14 12 6 9 2 2 10 10 10 11 8 7
15 15 15 16 17 16 14 13 14 14 15 16 16 16 17 19 18 16 7 8 11 7 11 16 15 15 15 17 11 14 15 21 20 13 14 7 9 7 9 11 16 16 12 8 10
16 17 16 15 16 16 17 17 14 14 14 14 16 15 15 18 11 9 11 6 13 17 23 19 16 18 22 19 21 21 23 19 22 18 12 15 18 15 16 15 19 17 16 17 17
16 17 17 17 17 16 15 15 15 16 13 14 13 14 14 9 10 9 7 8 11 14 21 21 19 22 22 26 22 29 25 24 23 23 19 19 21 21 18 19 24 21 16 21 23
15 16 16 17 18 18 16 16 15 15 15 15 13 11 10 10 16 8 10 4 7 8 21 26 24 24 28 24 27 31 27 23 24 26 20 20 24 28 25 22 24 22 20 21 20
15 15 16 16 16 17 18 17 16 16 16 15 12 8 12 18 5 8 11 12 9 9 12 21 16 21 22 29 30 25 28 27 26 25 21 23 26 27 23 23 25 22 22 21 22
14 16 16 16 17 17 17 17 18 20 20 16 12 9 14 22 11 9 17 13 7 10 12 12 22 9 14 21 22 25 26 24 22 25 25 22 26 28 20 25 23 20 19 21 21
16 16 17 18 18 19 19 19 20 23 24 16 11 9 12 9 10 15 16 17 16 16 12 10 11 18 19 15 14 21 26 24 23 22 23 18 30 22 19 21 19 18 19 21 24
17 17 17 19 19 20 20 21 24 16 11 7 8 9 12 7 9 12 13 15 12 15 14 11 13 17 14 19 18 24 24 31 25 22 19 20 29 21 16 16 15 19 20 21 21
17 15 16 19 19 20 23 23 11 7 7 7 5 7 8 7 2 4 7 9 11 12 14 18 13 15 20 22 31 22 26 27 26 20 16 27 28 20 18 21 20 19 20 22 21
20 18 16 17 19 19 16 7 6 8 9 13 8 16 20 17 8 13 4 4 9 18 23 24 21 28 40 34 26 25 29 25 23 18 22 24 24 23 18 20 23 21 21 22 20
21 21 19 17 18 15 10 8 4 7 13 17 25 25 25 23 13 19 13 10 12 22 26 21 31 48 30 27 29 29 30 28 24 22 24 21 27 26 22 22 22 22 19 20 16
19 19 19 17 17 6 11 7 3 9 9 17 12 13 11 12 16 23 19 20 19 20 29 34 42 25 32 30 31 32 31 27 30 21 22 22 27 29 24 27 18 16 21 22 16
19 18 17 17 10 7 7 0 7 7 8 5 4 5 6 6 7 18 13 23 20 24 25 33 34 28 32 34 34 33 27 26 25 23 25 21 25 24 21 19 21 21 20 16 11
19 20 16 10 10 6 5 5 7 6 8 5 6 4 2 7 8 9 9 18 28 23 18 31 27 36 31 40 28 31 19 23 22 22 25 28 22 20 21 22 24 18 20 13 3
22 20 15 7 4 9 7 6 6 7 10 1 3 4 7 6 4 8 14 13 16 28 24 29 13 24 40 21 28 20 17 19 19 17 23 23 24 20 20 27 24 18 17 9 8
25 21 8 2 5 6 6 6 7 9 7 2 7 11 13 9 6 10 11 11 14 23 26 22 29 18 21 29 24 25 22 11 13 16 19 19 19 16 16 13 12 10 10 11 9
23 13 4 4 3 4 5 5 8 2 4 14 12 18 18 8 4 5 9 14 16 24 19 21 23 32 20 31 24 31 26 12 18 15 16 18 13 17 12 21 23 21 12 9 10
21 2 5 8 3 4 4 6 9 10 7 10 16 17 16 6 6 6 1 4 9 15 22 19 26 28 22 24 33 27 30 24 13 12 8 14 17 14 19 21 15 12 15 11 11
5 3 8 7 4 3 4 5 5 6 11 13 15 10 14 8 10 5 2 5 11 18 14 6 11 20 31 25 27 26 23 23 16 20 16 12 12 10 8 11 13 14 14 14 13
4 4 7 6 4 2 4 8 11 10 12 8 13 14 14 14 14 12 2 11 3 13 12 14 10 15 24 26 26 23 22 21 16 14 16 11 8 9 13 9 11 12 14 14 16
4 3 5 3 2 1 5 10 9 11 9 9 9 9 11 13 12 8 6 4 8 6 7 8 8 12 27 22 24 28 21 27 13 21 12 9 4 2 6 1 9 11 11 14 17
5 4 3 6 3 4 7 10 7 13 11 7 11 7 10 11 7 5 5 11 8 1 2 4 11 9 12 24 22 28 23 25 17 15 20 12 2 6 4 5 5 7 12 16 18
5 4 1 2 1 4 8 7 8 6 8 9 10 11 12 10 9 7 7 3 4 8 7 5 6 15 8 17 10 23 25 24 24 12 12 15 12 7 7 10 8 8 12 16 18
4 3 4 4 5 10 9 6 12 9 7 12 4 8 11 8 16 11 5 8 2 5 8 5 9 19 19 9 7 14 24 25 24 22 17 12 15 15 8 10 8 4 13 16 18
4 4 4 10 7 11 1 8 11 12 8 9 11 16 14 13 14 17 16 11 4 6 5 5 2 12 20 15 12 8 10 22 24 22 20 15 17 14 17 16 9 4 11 16 17
2 3 4 7 6 8 6 8 12 16 12 8 13 16 15 10 13 17 17 16 10 7 4 5 5 6 19 20 10 12 15 15 18 22 19 19 19 14 15 8 9 7 7 15 18
Wind_Direction
1 358 353 344 347 348 347 342 338 337 335 330 331 330 329 326 309 271 249 223 203 169 221 162 202 227 215 213 218 228 236 245 248 255 256 180 235 157 313 276 295 268 277 315 349
356 353 354 351 347 345 339 336 339 334 330 333 331 330 330 325 303 273 269 249 213 210 216 203 199 206 217 226 205 212 229 234 248 262 267 287 264 287 269 266 275 274 228 254 276
350 349 348 347 345 340 338 336 332 328 327 329 325 325 320 311 287 253 58 11 251 231 239 226 229 204 227 226 214 221 240 239 247 248 261 287 277 282 274 270 274 297 306 290 291
349 346 343 342 339 335 331 328 323 320 318 316 316 318 322 289 252 103 66 340 286 218 216 217 218 218 229 234 228 240 240 244 256 253 249 266 282 283 270 277 282 291 290 290 292
346 343 339 334 333 330 323 322 318 317 312 307 309 316 308 231 244 127 329 324 299 183 209 203 211 223 225 234 238 244 248 256 250 268 266 263 268 270 273 282 279 287 288 279 278
343 336 333 330 326 324 320 317 314 307 297 290 286 288 267 251 331 299 298 296 267 244 210 218 226 228 244 238 243 248 249 248 258 253 257 257 264 269 271 276 278 281 284 284 285
340 335 330 329 325 320 315 313 310 300 296 287 269 252 260 251 279 290 288 289 277 274 233 217 226 232 227 252 257 258 257 257 246 253 254 261 261 260 265 266 272 284 284 283 284
336 332 334 331 328 324 318 312 300 297 294 281 249 234 259 247 273 272 272 264 249 247 258 272 234 242 248 270 268 242 239 247 231 226 239 242 261 263 269 269 279 279 286 291 287
332 329 330 330 328 325 317 304 300 295 286 236 200 220 270 116 238 255 242 253 251 223 231 247 226 230 220 234 245 223 234 229 242 231 242 221 260 255 263 271 271 284 292 292 286
328 324 324 326 327 327 319 302 296 242 211 185 251 220 235 247 296 228 268 235 239 216 208 218 214 214 221 215 226 222 226 247 258 228 212 245 249 253 256 269 276 284 290 286 283
336 329 322 323 327 328 316 287 232 198 212 263 275 250 288 284 250 258 188 209 212 225 204 196 203 214 218 218 235 248 245 239 240 242 252 261 260 260 263 272 279 289 286 287 279
339 336 329 322 322 324 289 344 20 339 295 270 258 261 262 273 277 269 264 221 198 217 208 188 215 222 218 222 225 237 245 247 253 241 251 248 267 269 261 271 279 275 280 278 289
336 335 334 327 317 273 329 307 0 330 264 289 267 258 260 238 250 255 244 226 231 228 213 215 220 215 219 220 223 227 235 241 252 262 247 259 266 268 263 256 271 262 264 275 270
332 331 329 333 277 346 296 326 285 327 280 251 188 197 189 222 233 235 257 225 221 235 229 229 232 217 222 225 218 231 222 244 257 254 251 246 269 264 275 273 261 266 269 256 255
327 325 324 321 305 271 3 282 309 237 280 93 132 86 200 243 321 79 169 232 237 219 221 222 225 227 218 224 218 236 230 237 239 248 258 247 259 267 261 264 260 260 264 239 233
326 324 324 259 262 280 299 285 243 232 244 281 126 305 284 221 321 339 313 211 244 242 239 238 213 224 230 217 219 223 221 229 235 241 241 246 254 256 263 261 265 257 249 179 168
326 326 304 310 343 344 309 240 229 251 38 53 332 324 307 292 315 307 329 258 219 210 229 228 238 235 231 209 200 201 189 194 215 220 242 241 247 251 267 241 259 250 244 153 154
326 316 134 344 332 325 244 206 248 358 299 340 319 303 284 342 307 297 281 328 212 230 220 224 219 223 207 216 189 195 193 205 215 225 239 222 247 232 242 251 247 250 242 142 162
310 193 20 20 20 214 245 237 356 4 340 317 304 274 271 220 285 279 325 301 303 255 242 222 232 190 221 213 199 193 212 211 255 229 282 207 228 274 257 254 244 232 213 178 162
329 269 48 26 11 278 285 321 317 327 307 301 293 288 296 315 303 316 176 111 325 335 333 299 272 222 195 207 204 198 194 202 221 234 225 247 230 239 196 228 229 222 200 174 157
298 266 43 82 55 316 315 335 329 324 323 309 305 300 281 285 293 310 303 138 88 318 311 282 260 235 184 204 191 198 197 214 212 230 212 230 226 214 243 239 215 193 171 159 163
311 329 44 253 336 177 318 332 315 310 347 294 284 286 295 296 289 282 291 51 177 302 311 326 285 275 197 201 218 200 208 197 203 198 258 219 212 1 289 35 222 200 150 157 162
341 300 102 280 346 344 322 303 286 310 339 328 298 308 301 293 292 283 286 136 201 138 327 20 236 235 220 197 205 200 208 194 213 198 208 224 199 233 135 134 138 138 148 154 153
319 322 350 35 110 333 329 293 323 315 321 300 287 302 328 308 274 271 281 80 157 254 208 230 265 249 197 190 190 209 208 195 210 219 185 212 206 221 161 111 108 125 154 156 161
14 21 353 314 325 324 295 284 298 2 315 308 268 294 351 305 313 282 280 312 18 288 214 249 266 234 252 291 297 283 210 211 207 218 228 196 221 227 216 111 65 110 162 167 166
346 336 327 285 279 296 321 292 324 341 317 302 308 326 313 293 294 298 312 308 349 319 313 229 262 271 247 231 246 251 250 215 214 214 224 242 227 244 270 293 297 170 187 182 175
58 251 279 292 302 318 312 314 314 317 288 279 322 310 296 309 323 297 283 277 261 266 286 274 291 227 237 215 222 246 216 220 220 216 217 221 237 248 245 269 242 244 197 201 186